sat.trackr.live / text

‹ back to catalog

STARLINK-36036

NORAD 66608 · 2025-270W

PAYLOAD ACTIVE UNKNOWN

§ Identity

Operator
Country
US
Launch date
2025-11-22
Launch site
AFETR
Launch vehicle
Mass (kg)
RCS (m²)

Purposes: comms

External: N2YO · Heavens-Above · Gunter

§ Orbital elements

Epoch: 2026-05-24T23:07:39.862848Z

Period
94.27 min
Inclination
43.0014°
Eccentricity
0.0001755
Mean motion
15.27598568 rev/d
Perigee alt
481.8 km
Apogee alt
484.2 km
Semi-major
6,861.1 km
B*
6.1153e-4
RAAN
345.1897°
Arg perigee
272.6455°
Mean anomaly
87.4195°
Rev number
2,921

§ Raw data

STARLINK-360361 66608U 25270W   26144.96365582  .00016613  00000+0  61153-3 0  99982 66608  43.0014 345.1897 0001755 272.6455  87.4195 15.27598568 29210

JSON: /api/v1/satellites/66608 · /tle

For live sub-satellite position, see the globe view (requires WebGL).

§ Visibility from observer

Set your observer location to see the next 7 days of passes ≥ 10°. The values pass through the URL so the page stays shareable.

No JS? Fill the form by hand. The geolocation button needs JavaScript.